Location: Sevilla
(37.3933°N, 5.9839°W)
Time: 05:40:31
(UTC+02:00)

Transit 2A Rocket - Pass Details

Date: 04 July 2024
Orbit: 582 x 910 km, 66.7° (Epoch: 15 July)

Event Time Altitude Azimuth Distance (km) Brightness Sun altitude
Rises 03:04:12 0° 346° (NNW) 3,525 9.4 -29.2°
Reaches altitude 10° 03:07:53 10° 8° (N) 2,599 8.7 -29.1°
Maximum altitude 03:11:24 16° 43° (NE) 2,220 8.0 -28.9°
Drops below altitude 10° 03:14:53 10° 79° (ENE) 2,582 8.0 -28.8°
Sets 03:18:30 0° 101° (E) 3,490 8.4 -28.6°
